QPF
0.04 0.04 0.03 0.02 0.01 0.00 0.01 0.01 0.04 0.06 0.05 0.03 0.02 0.00 0.00 0.00 0.00 0.00 0.00 0.00 0.00 0.00 0.00 0.00 0.00 0.00 0.00 0.00 0.00 0.00 0.00 0.00 0.00 0.00 0.00 0.00 0.00 0.00
0.05 0.05 0.05 0.02 0.02 0.01 0.01 0.01 0.01 0.03 0.04 0.02 0.01 0.00 0.00 0.00 0.00 0.00 0.00 0.00 0.00 0.00 0.00 0.00 0.00 0.00 0.00 0.00 0.00 0.00 0.00 0.00 0.00 0.00 0.00 0.00 0.00 0.00
0.04 0.04 0.04 0.03 0.04 0.03 0.02 0.01 0.01 0.01 0.02 0.02 0.00 0.01 0.01 0.00 0.00 0.00 0.00 0.00 0.00 0.00 0.00 0.00 0.00 0.00 0.00 0.00 0.00 0.00 0.00 0.00 0.00 0.00 0.00 0.00 0.00 0.00
0.05 0.05 0.06 0.05 0.05 0.04 0.04 0.03 0.02 0.02 0.02 0.03 0.02 0.02 0.02 0.01 0.01 0.01 0.00 0.00 0.00 0.00 0.00 0.00 0.00 0.00 0.00 0.00 0.00 0.00 0.00 0.00 0.00 0.00 0.00 0.00 0.00 0.00
0.06 0.06 0.07 0.07 0.07 0.06 0.05 0.04 0.02 0.02 0.02 0.03 0.03 0.03 0.03 0.01 0.02 0.01 0.00 0.00 0.00 0.00 0.00 0.00 0.00 0.00 0.00 0.00 0.00 0.00 0.00 0.00 0.00 0.00 0.00 0.00 0.00 0.00
0.06 0.06 0.06 0.06 0.06 0.06 0.05 0.05 0.04 0.04 0.05 0.04 0.04 0.04 0.03 0.02 0.02 0.02 0.01 0.01 0.00 0.00 0.00 0.00 0.00 0.00 0.00 0.00 0.00 0.00 0.00 0.00 0.00 0.00 0.00 0.00 0.00 0.00
0.07 0.06 0.05 0.05 0.05 0.05 0.04 0.04 0.04 0.04 0.05 0.04 0.04 0.04 0.04 0.04 0.04 0.03 0.02 0.02 0.01 0.01 0.00 0.00 0.00 0.00 0.00 0.00 0.00 0.00 0.00 0.00 0.00 0.00 0.00 0.00 0.00 0.00
0.08 0.07 0.05 0.04 0.04 0.04 0.04 0.04 0.04 0.04 0.05 0.05 0.05 0.05 0.05 0.04 0.04 0.04 0.03 0.03 0.03 0.02 0.02 0.01 0.01 0.00 0.00 0.00 0.00 0.00 0.00 0.00 0.00 0.00 0.00 0.00 0.00 0.00
0.09 0.09 0.05 0.04 0.05 0.04 0.04 0.05 0.04 0.03 0.04 0.04 0.05 0.06 0.07 0.07 0.07 0.06 0.05 0.04 0.03 0.02 0.02 0.01 0.01 0.01 0.00 0.01 0.00 0.00 0.00 0.00 0.00 0.00 0.00 0.00 0.00 0.00
0.08 0.07 0.07 0.07 0.07 0.07 0.06 0.06 0.05 0.05 0.05 0.05 0.05 0.07 0.09 0.10 0.10 0.08 0.07 0.05 0.03 0.02 0.02 0.02 0.01 0.01 0.00 0.01 0.01 0.01 0.01 0.00 0.00 0.00 0.00 0.00 0.00 0.00
0.06 0.06 0.05 0.04 0.06 0.08 0.08 0.07 0.05 0.06 0.06 0.06 0.06 0.06 0.06 0.06 0.06 0.05 0.04 0.03 0.03 0.03 0.02 0.02 0.02 0.02 0.01 0.01 0.01 0.01 0.01 0.01 0.00 0.00 0.00 0.00 0.00 0.00
0.07 0.05 0.04 0.04 0.07 0.07 0.07 0.07 0.06 0.06 0.08 0.07 0.05 0.04 0.03 0.03 0.03 0.02 0.02 0.03 0.03 0.03 0.03 0.03 0.03 0.03 0.02 0.01 0.00 0.01 0.01 0.01 0.01 0.00 0.00 0.00 0.01 0.00
0.07 0.06 0.05 0.06 0.06 0.06 0.05 0.05 0.05 0.06 0.07 0.07 0.07 0.06 0.06 0.05 0.04 0.04 0.04 0.05 0.05 0.05 0.04 0.03 0.03 0.03 0.03 0.01 0.00 0.00 0.01 0.01 0.01 0.01 0.01 0.01 0.01 0.00
0.06 0.06 0.06 0.07 0.06 0.05 0.05 0.04 0.04 0.05 0.05 0.06 0.06 0.06 0.06 0.06 0.06 0.06 0.05 0.05 0.04 0.03 0.03 0.03 0.03 0.02 0.02 0.02 0.01 0.00 0.01 0.01 0.01 0.01 0.02 0.02 0.01 0.01
0.06 0.08 0.07 0.08 0.07 0.07 0.07 0.06 0.06 0.06 0.06 0.06 0.06 0.05 0.05 0.05 0.05 0.04 0.04 0.04 0.04 0.03 0.03 0.03 0.03 0.03 0.03 0.02 0.02 0.01 0.01 0.01 0.01 0.01 0.02 0.02 0.02 0.03
0.06 0.09 0.10 0.10 0.10 0.09 0.08 0.07 0.06 0.07 0.07 0.07 0.06 0.06 0.06 0.05 0.04 0.03 0.03 0.04 0.04 0.03 0.03 0.04 0.05 0.05 0.04 0.04 0.04 0.03 0.03 0.03 0.02 0.02 0.03 0.03 0.03 0.02
0.12 0.13 0.13 0.13 0.12 0.09 0.07 0.07 0.08 0.08 0.07 0.07 0.06 0.05 0.05 0.04 0.04 0.05 0.05 0.05 0.05 0.04 0.03 0.04 0.05 0.06 0.05 0.05 0.05 0.04 0.04 0.04 0.04 0.04 0.04 0.04 0.04 0.03
0.11 0.11 0.11 0.10 0.09 0.08 0.07 0.09 0.10 0.08 0.07 0.07 0.07 0.07 0.07 0.07 0.07 0.06 0.06 0.06 0.06 0.05 0.04 0.04 0.04 0.05 0.05 0.05 0.05 0.05 0.05 0.05 0.05 0.05 0.06 0.06 0.05 0.04
0.09 0.07 0.08 0.09 0.11 0.12 0.12 0.11 0.10 0.10 0.09 0.10 0.11 0.11 0.11 0.10 0.10 0.09 0.08 0.06 0.05 0.04 0.04 0.03 0.03 0.04 0.04 0.04 0.04 0.05 0.05 0.06 0.05 0.05 0.05 0.05 0.04 0.04
0.07 0.08 0.10 0.12 0.13 0.14 0.14 0.14 0.14 0.13 0.12 0.12 0.12 0.11 0.12 0.12 0.11 0.09 0.07 0.06 0.05 0.04 0.04 0.03 0.03 0.04 0.04 0.04 0.04 0.03 0.03 0.03 0.04 0.04 0.04 0.03 0.04 0.03
0.09 0.10 0.10 0.10 0.10 0.11 0.12 0.12 0.12 0.12 0.11 0.11 0.11 0.11 0.11 0.10 0.09 0.07 0.06 0.06 0.05 0.04 0.04 0.04 0.04 0.04 0.04 0.05 0.05 0.04 0.03 0.03 0.04 0.04 0.03 0.03 0.03 0.03
0.08 0.08 0.09 0.09 0.09 0.10 0.10 0.11 0.11 0.11 0.09 0.09 0.08 0.07 0.07 0.07 0.07 0.06 0.06 0.05 0.05 0.05 0.04 0.04 0.04 0.04 0.05 0.06 0.06 0.04 0.03 0.02 0.02 0.03 0.03 0.03 0.03 0.03
0.06 0.08 0.09 0.11 0.12 0.13 0.13 0.12 0.11 0.10 0.09 0.08 0.08 0.07 0.06 0.05 0.05 0.05 0.05 0.05 0.05 0.04 0.05 0.05 0.05 0.05 0.04 0.04 0.04 0.04 0.03 0.02 0.02 0.02 0.03 0.04 0.03 0.03
MSLP
1015.66 1015.99 1016.31 1016.59 1016.81 1016.94 1016.98 1016.92 1016.77 1016.58 1016.37 1016.18 1016.03 1015.96 1015.97 1016.05 1016.22 1016.44 1016.72 1017.01 1017.32 1017.62 1017.89 1018.14 1018.34 1018.51 1018.62 1018.70 1018.74 1018.75 1018.75 1018.74 1018.73 1018.72 1018.71 1018.70 1018.67 1018.63
1015.32 1015.65 1015.96 1016.24 1016.47 1016.62 1016.68 1016.67 1016.57 1016.43 1016.26 1016.08 1015.94 1015.84 1015.80 1015.83 1015.91 1016.06 1016.25 1016.47 1016.72 1016.97 1017.22 1017.46 1017.67 1017.85 1018.00 1018.10 1018.17 1018.22 1018.24 1018.24 1018.24 1018.24 1018.23 1018.21 1018.18 1018.14
1014.99 1015.31 1015.63 1015.92 1016.16 1016.35 1016.46 1016.51 1016.49 1016.42 1016.31 1016.18 1016.06 1015.95 1015.88 1015.84 1015.84 1015.88 1015.97 1016.08 1016.24 1016.41 1016.60 1016.79 1016.97 1017.14 1017.29 1017.40 1017.49 1017.56 1017.60 1017.63 1017.66 1017.67 1017.68 1017.68 1017.66 1017.63
1014.73 1015.06 1015.38 1015.68 1015.95 1016.18 1016.35 1016.47 1016.53 1016.54 1016.50 1016.43 1016.34 1016.23 1016.12 1016.03 1015.94 1015.88 1015.85 1015.85 1015.88 1015.94 1016.03 1016.14 1016.26 1016.38 1016.50 1016.60 1016.70 1016.77 1016.84 1016.90 1016.96 1017.01 1017.05 1017.09 1017.11 1017.10
1014.61 1014.93 1015.26 1015.57 1015.85 1016.11 1016.33 1016.50 1016.63 1016.71 1016.73 1016.71 1016.65 1016.55 1016.43 1016.28 1016.12 1015.96 1015.82 1015.69 1015.60 1015.54 1015.51 1015.52 1015.55 1015.60 1015.66 1015.73 1015.80 1015.88 1015.96 1016.05 1016.15 1016.24 1016.34 1016.43 1016.49 1016.53
1014.61 1014.93 1015.24 1015.54 1015.83 1016.09 1016.33 1016.53 1016.69 1016.80 1016.87 1016.89 1016.85 1016.76 1016.62 1016.44 1016.23 1016.00 1015.76 1015.54 1015.34 1015.16 1015.02 1014.92 1014.86 1014.82 1014.81 1014.83 1014.87 1014.93 1015.02 1015.13 1015.26 1015.40 1015.55 1015.69 1015.81 1015.90
1014.67 1014.97 1015.26 1015.54 1015.79 1016.03 1016.24 1016.43 1016.58 1016.70 1016.78 1016.81 1016.78 1016.70 1016.56 1016.37 1016.14 1015.88 1015.59 1015.31 1015.03 1014.77 1014.55 1014.36 1014.20 1014.08 1014.00 1013.96 1013.96 1013.99 1014.07 1014.19 1014.35 1014.53 1014.72 1014.91 1015.07 1015.20
1014.70 1014.97 1015.22 1015.45 1015.65 1015.83 1015.99 1016.12 1016.23 1016.32 1016.37 1016.39 1016.37 1016.30 1016.18 1016.00 1015.79 1015.53 1015.25 1014.96 1014.66 1014.37 1014.09 1013.84 1013.63 1013.44 1013.30 1013.20 1013.15 1013.16 1013.21 1013.32 1013.48 1013.67 1013.89 1014.10 1014.29 1014.43
1014.58 1014.82 1015.02 1015.20 1015.33 1015.44 1015.52 1015.58 1015.62 1015.65 1015.66 1015.66 1015.63 1015.58 1015.49 1015.36 1015.20 1015.00 1014.77 1014.51 1014.24 1013.96 1013.69 1013.43 1013.18 1012.96 1012.77 1012.63 1012.54 1012.50 1012.52 1012.60 1012.74 1012.91 1013.11 1013.31 1013.50 1013.64
1014.25 1014.46 1014.63 1014.75 1014.83 1014.87 1014.87 1014.85 1014.82 1014.79 1014.75 1014.73 1014.70 1014.67 1014.63 1014.56 1014.48 1014.36 1014.22 1014.05 1013.85 1013.63 1013.39 1013.15 1012.92 1012.69 1012.48 1012.30 1012.17 1012.08 1012.05 1012.08 1012.17 1012.29 1012.45 1012.60 1012.74 1012.84
1013.73 1013.93 1014.08 1014.18 1014.22 1014.20 1014.15 1014.07 1013.99 1013.91 1013.84 1013.80 1013.78 1013.78 1013.79 1013.80 1013.80 1013.78 1013.74 1013.67 1013.56 1013.42 1013.25 1013.06 1012.86 1012.64 1012.43 1012.23 1012.06 1011.92 1011.83 1011.79 1011.80 1011.85 1011.92 1012.00 1012.06 1012.09
1013.12 1013.33 1013.48 1013.58 1013.62 1013.59 1013.52 1013.42 1013.31 1013.22 1013.14 1013.10 1013.10 1013.13 1013.19 1013.26 1013.34 1013.40 1013.45 1013.47 1013.45 1013.39 1013.29 1013.15 1012.98 1012.79 1012.58 1012.37 1012.16 1011.97 1011.81 1011.69 1011.61 1011.55 1011.52 1011.50 1011.47 1011.42
1012.57 1012.80 1012.99 1013.12 1013.19 1013.19 1013.14 1013.06 1012.97 1012.89 1012.83 1012.80 1012.82 1012.88 1012.97 1013.08 1013.20 1013.32 1013.42 1013.50 1013.54 1013.54 1013.49 1013.39 1013.26 1013.08 1012.87 1012.64 1012.39 1012.15 1011.92 1011.71 1011.53 1011.37 1011.23 1011.10 1010.97 1010.83
1012.25 1012.52 1012.75 1012.93 1013.06 1013.12 1013.13 1013.11 1013.06 1013.02 1012.99 1012.99 1013.02 1013.09 1013.19 1013.31 1013.44 1013.56 1013.67 1013.76 1013.82 1013.83 1013.80 1013.72 1013.59 1013.42 1013.20 1012.95 1012.66 1012.36 1012.06 1011.76 1011.48 1011.21 1010.97 1010.74 1010.52 1010.31
1012.28 1012.58 1012.87 1013.11 1013.30 1013.44 1013.53 1013.57 1013.59 1013.60 1013.60 1013.62 1013.66 1013.72 1013.80 1013.89 1013.98 1014.06 1014.14 1014.19 1014.21 1014.20 1014.15 1014.06 1013.91 1013.72 1013.48 1013.19 1012.86 1012.50 1012.13 1011.75 1011.38 1011.02 1010.68 1010.37 1010.08 1009.81
1012.72 1013.04 1013.36 1013.66 1013.91 1014.12 1014.28 1014.39 1014.47 1014.52 1014.56 1014.58 1014.61 1014.63 1014.66 1014.68 1014.70 1014.70 1014.70 1014.68 1014.63 1014.56 1014.46 1014.32 1014.14 1013.91 1013.63 1013.30 1012.92 1012.50 1012.06 1011.60 1011.15 1010.72 1010.31 1009.94 1009.60 1009.29
1013.54 1013.86 1014.19 1014.51 1014.81 1015.06 1015.27 1015.43 1015.54 1015.62 1015.66 1015.68 1015.66 1015.63 1015.58 1015.51 1015.43 1015.34 1015.23 1015.11 1014.99 1014.84 1014.67 1014.48 1014.24 1013.96 1013.63 1013.24 1012.80 1012.32 1011.81 1011.29 1010.77 1010.28 1009.82 1009.41 1009.04 1008.73
1014.62 1014.92 1015.24 1015.55 1015.85 1016.12 1016.34 1016.51 1016.63 1016.70 1016.72 1016.70 1016.63 1016.52 1016.38 1016.22 1016.03 1015.83 1015.63 1015.42 1015.21 1014.99 1014.75 1014.50 1014.21 1013.87 1013.48 1013.04 1012.53 1011.99 1011.41 1010.82 1010.24 1009.70 1009.20 1008.77 1008.40 1008.09
1015.81 1016.06 1016.34 1016.63 1016.90 1017.15 1017.35 1017.50 1017.60 1017.63 1017.60 1017.51 1017.37 1017.17 1016.94 1016.68 1016.40 1016.11 1015.83 1015.54 1015.27 1014.99 1014.71 1014.41 1014.07 1013.68 1013.24 1012.73 1012.16 1011.55 1010.91 1010.26 1009.63 1009.04 1008.52 1008.07 1007.71 1007.42
1016.95 1017.15 1017.39 1017.63 1017.86 1018.06 1018.21 1018.32 1018.35 1018.32 1018.22 1018.06 1017.83 1017.55 1017.23 1016.88 1016.53 1016.17 1015.83 1015.50 1015.19 1014.88 1014.57 1014.24 1013.87 1013.44 1012.95 1012.39 1011.76 1011.09 1010.38 1009.67 1008.99 1008.37 1007.82 1007.37 1007.02 1006.75
1017.93 1018.10 1018.29 1018.48 1018.66 1018.81 1018.90 1018.94 1018.91 1018.80 1018.61 1018.36 1018.04 1017.68 1017.28 1016.86 1016.45 1016.05 1015.68 1015.33 1015.01 1014.70 1014.38 1014.04 1013.66 1013.21 1012.68 1012.08 1011.40 1010.67 1009.91 1009.15 1008.42 1007.76 1007.20 1006.74 1006.40 1006.15
1018.71 1018.85 1019.01 1019.17 1019.31 1019.41 1019.45 1019.42 1019.32 1019.13 1018.86 1018.52 1018.11 1017.66 1017.19 1016.72 1016.26 1015.83 1015.44 1015.09 1014.78 1014.48 1014.18 1013.85 1013.46 1013.01 1012.47 1011.83 1011.12 1010.34 1009.54 1008.74 1007.98 1007.30 1006.72 1006.26 1005.93 1005.71
1019.29 1019.44 1019.60 1019.75 1019.86 1019.93 1019.93 1019.85 1019.68 1019.42 1019.07 1018.64 1018.16 1017.63 1017.09 1016.56 1016.06 1015.60 1015.20 1014.85 1014.55 1014.27 1013.98 1013.67 1013.30 1012.85 1012.31 1011.67 1010.94 1010.15 1009.32 1008.50 1007.72 1007.03 1006.44 1005.99 1005.66 1005.46
Thickness
5744 5744 5743 5745 5746 5747 5746 5743 5734 5726 5728 5737 5741 5745 5743 5741 5737 5734 5731 5729 5726 5724 5722 5720 5718 5716 5714 5712 5711 5709 5707 5706 5704 5702 5700 5699 5697 5695
5743 5743 5742 5744 5745 5746 5746 5745 5743 5735 5730 5737 5740 5744 5743 5741 5737 5735 5733 5730 5728 5725 5723 5721 5719 5717 5715 5713 5711 5709 5707 5705 5703 5701 5699 5697 5696 5694
5742 5742 5741 5742 5742 5743 5744 5743 5742 5740 5733 5736 5741 5743 5741 5739 5736 5734 5733 5731 5728 5726 5724 5722 5720 5717 5715 5713 5710 5708 5706 5704 5702 5700 5697 5695 5693 5692
5740 5740 5740 5740 5739 5740 5740 5740 5740 5740 5736 5731 5735 5736 5737 5737 5735 5733 5733 5731 5730 5729 5726 5723 5720 5718 5715 5713 5710 5708 5705 5703 5700 5698 5696 5693 5691 5689
5740 5738 5738 5738 5736 5737 5737 5737 5738 5739 5737 5733 5732 5734 5734 5735 5733 5732 5732 5731 5730 5730 5727 5723 5720 5717 5715 5712 5710 5707 5704 5701 5698 5696 5693 5691 5689 5687
5739 5738 5737 5736 5735 5734 5734 5734 5734 5733 5733 5731 5729 5730 5730 5732 5730 5726 5725 5726 5727 5728 5725 5722 5720 5717 5714 5711 5708 5705 5703 5700 5697 5694 5691 5688 5686 5684
5737 5736 5735 5735 5734 5733 5732 5731 5731 5729 5728 5727 5725 5725 5725 5725 5724 5724 5722 5722 5723 5723 5721 5720 5718 5714 5712 5709 5706 5703 5700 5697 5694 5691 5688 5685 5682 5680
5733 5732 5732 5731 5731 5730 5729 5729 5728 5726 5724 5722 5721 5720 5721 5723 5723 5721 5718 5715 5712 5718 5715 5714 5715 5711 5710 5708 5706 5703 5699 5695 5691 5688 5685 5681 5678 5675
5731 5729 5729 5731 5729 5728 5726 5725 5724 5723 5721 5719 5717 5716 5716 5717 5717 5714 5712 5710 5707 5710 5708 5706 5707 5705 5706 5705 5703 5699 5695 5691 5687 5683 5680 5677 5674 5670
5728 5727 5725 5725 5726 5725 5723 5721 5720 5720 5719 5717 5716 5715 5714 5713 5711 5709 5707 5706 5706 5705 5703 5697 5698 5698 5699 5698 5696 5693 5689 5686 5681 5678 5674 5671 5667 5664
5725 5725 5723 5722 5722 5720 5718 5717 5716 5716 5716 5715 5713 5711 5709 5707 5705 5701 5698 5695 5693 5695 5695 5691 5690 5689 5690 5688 5687 5684 5681 5678 5674 5671 5668 5664 5661 5657
5720 5720 5719 5718 5717 5715 5713 5711 5709 5709 5709 5709 5705 5703 5702 5700 5697 5694 5691 5687 5685 5684 5685 5682 5680 5678 5676 5679 5678 5675 5672 5670 5666 5663 5660 5657 5653 5648
5716 5716 5716 5715 5712 5710 5708 5706 5704 5703 5702 5701 5699 5697 5695 5693 5691 5688 5685 5681 5677 5675 5676 5673 5670 5668 5664 5665 5666 5665 5663 5660 5657 5655 5652 5649 5645 5640
5713 5712 5711 5710 5707 5705 5702 5700 5698 5696 5694 5691 5689 5687 5686 5684 5683 5681 5679 5676 5673 5670 5668 5664 5660 5657 5653 5651 5651 5653 5652 5650 5647 5645 5643 5640 5636 5632
5708 5706 5704 5703 5700 5697 5694 5692 5689 5687 5684 5681 5679 5678 5677 5676 5674 5672 5671 5668 5665 5662 5659 5655 5651 5648 5643 5640 5639 5639 5637 5637 5636 5634 5631 5628 5626 5623
5699 5698 5696 5694 5692 5690 5687 5683 5680 5678 5675 5673 5671 5669 5668 5665 5663 5661 5658 5656 5653 5651 5650 5646 5642 5638 5634 5631 5629 5627 5626 5624 5623 5621 5618 5617 5615 5612
5693 5691 5689 5686 5684 5681 5679 5676 5673 5669 5666 5663 5661 5659 5657 5654 5652 5650 5646 5644 5640 5638 5636 5635 5632 5629 5626 5622 5619 5617 5615 5612 5610 5607 5604 5603 5602 5599
5685 5683 5679 5677 5674 5672 5669 5666 5664 5661 5657 5655 5652 5648 5645 5641 5639 5637 5635 5631 5628 5625 5623 5622 5620 5617 5613 5611 5608 5604 5601 5599 5596 5593 5590 5587 5587 5586
5674 5671 5668 5665 5663 5661 5658 5655 5652 5650 5647 5644 5640 5637 5634 5630 5627 5624 5621 5618 5614 5611 5609 5608 5605 5601 5597 5595 5595 5590 5585 5584 5582 5580 5577 5574 5572 5572
5661 5657 5655 5652 5650 5647 5645 5642 5639 5637 5634 5630 5627 5623 5619 5616 5613 5609 5606 5603 5600 5598 5596 5594 5591 5586 5582 5579 5579 5577 5574 5571 5568 5565 5563 5562 5560 5558
5646 5643 5640 5638 5636 5633 5631 5628 5625 5622 5619 5615 5612 5608 5605 5601 5598 5595 5592 5589 5586 5584 5581 5579 5577 5573 5571 5568 5566 5566 5564 5560 5556 5552 5550 5548 5546 5544
5631 5628 5625 5623 5621 5618 5616 5613 5610 5606 5603 5599 5595 5592 5589 5586 5583 5581 5578 5575 5573 5570 5568 5566 5564 5560 5557 5554 5553 5552 5551 5549 5546 5543 5538 5535 5530 5528
5616 5613 5611 5608 5605 5603 5599 5596 5592 5589 5585 5581 5578 5575 5573 5571 5569 5567 5565 5562 5560 5558 5556 5553 5550 5547 5544 5541 5540 5539 5538 5537 5535 5532 5529 5526 5521 5518